Location: Unspecified
(44.0704°N, 88.6889°W)
Time: 18:49:18
(UTC+02:00)

Altair - Pass Details

Date: 17 June 2019
Orbit: 1501 x 1683 km, 47.2° (Epoch: 20 July)

Event Time Altitude Azimuth Distance (km) Brightness Sun altitude
Rises 02:47:43 0° 184° (S) 4,686 9.8 7.3°
Reaches altitude 10° 02:51:46 10° 169° (S) 3,736 9.2 6.6°
Maximum altitude 02:58:08 20° 126° (SE) 3,047 8.5 5.6°
Drops below altitude 10° 03:04:37 10° 83° (E) 3,847 9.1 4.6°
Sets 03:08:50 0° 69° (ENE) 4,867 9.7 3.9°
